Content
SEND FEEDBACK

Daily
Averages
Monthly
Summary
France

BORDEAUX, FRANCE


Home > Europe > France
Elevation: 200 feet     Latitude: 44 50N     Longitude: 000 42W

WEATHER
 
SELECT A DAY
Number of Records: 320,101;   Date Range: 7/1/96 - 7/9/14
 
SHARE

PRINT THIS DATA

[ ← Previous Day ]
WEATHER ALMANAC - FEBRUARY 6, 2013
[ Next Day → ]
[ °C ]   °F
Weather ElementAverageHighLow
Temperature44.7 °F50 °F (12:00 pm)41 °F (12:30 am)
Dewpoint38.4 °F42.8 °F (10:00 am)32 °F (11:00 pm)
Humidity78.8 %93 % (2:00 am)58 % (3:00 pm)
Barometer29.87 in30.06 in (11:30 pm)29.80 in (6:00 am)
Wind Speed14.6 mph23 mph (1:30 pm)
Wind Gust36.8 mph (3:00 pm)
Weather ElementAverage
Visibility6.2 mi
Wind DirectionWNW (302.7 °)

Weather ElementTotal
Precipitation---
Heating Degree Days19.5 (Base 65)
Averaged from 51 records on February 6, 2013
WEATHER CONDITIONS BREAKOUT
WIND DIRECTION BREAKOUT
WEATHER BY HOUR - FEBRUARY 6, 2013
[ °C ]   °F
Local TimeTemperatureDewpointHumidityBarometerVisibilityWind DirectionWind SpeedGust SpeedPrecipitationEventsConditions
12:30 AM41.0 °F35.6 °F81 %29.95 in6.2 miWest (260°)11.5 mphPartly Cloudy
1:00 AM41.0 °F37.0 °F82 %29.96 inSW (230°)8.1 mphRainLight Rain Showers
1:00 AM41.0 °F37.4 °F87 %29.95 in6.2 miSW (230°)8.1 mphMostly Cloudy
1:30 AM41.0 °F37.4 °F87 %29.92 in6.2 miSW (230°)11.5 mphMostly Cloudy
2:00 AM41.0 °F39.2 °F93 %29.92 in6.2 miWest (270°)4.6 mphMostly Cloudy
2:30 AM41.0 °F39.2 °F93 %29.89 in6.2 miSSW (210°)6.9 mphMostly Cloudy
3:00 AM42.8 °F41.0 °F93 %29.89 in6.2 miWest (270°)13.8 mphMostly Cloudy
3:30 AM42.8 °F41.0 °F93 %29.89 in6.2 miWNW (300°)8.1 mphRainLight Rain
4:00 AM42.8 °F41.0 °F93 %29.86 in5.6 miNW (320°)5.8 mphMostly Cloudy
4:30 AM44.6 °F41.0 °F87 %29.83 in6.2 miWNW (300°)16.1 mphRainLight Rain
5:00 AM44.6 °F39.2 °F81 %29.83 in6.2 miWest (260°)10.4 mphOvercast
5:30 AM44.6 °F41.0 °F87 %29.83 in6.2 miWNW (300°)16.1 mphRainLight Rain
6:00 AM44.6 °F41.0 °F87 %29.80 in6.2 miWest (280°)17.3 mphRainLight Rain
6:30 AM42.8 °F41.0 °F93 %29.80 in6.2 miWNW (290°)13.8 mphMostly Cloudy
7:00 AM43.0 °F41.0 °F91 %29.83 inWNW (290°)15.0 mphRainHeavy Rain Showers
7:00 AM42.8 °F41.0 °F93 %29.80 in6.2 miWNW (290°)15.0 mphRainLight Rain
7:30 AM42.8 °F41.0 °F93 %29.80 in6.2 miWNW (290°)15.0 mphRainLight Rain
8:00 AM42.8 °F41.0 °F93 %29.80 in6.2 miWNW (290°)11.5 mphRainLight Rain
8:30 AM42.8 °F41.0 °F93 %29.80 in6.2 miWest (270°)10.4 mphMostly Cloudy
9:00 AM42.8 °F41.0 °F93 %29.80 in6.2 miWest (260°)10.4 mphMostly Cloudy
9:30 AM42.8 °F41.0 °F93 %29.80 in6.2 miWest (270°)10.4 mphMostly Cloudy
10:00 AM46.4 °F42.8 °F87 %29.80 in6.2 miWest (280°)8.1 mphMostly Cloudy
10:30 AM46.4 °F41.0 °F81 %29.80 in6.2 miNW (320°)13.8 mphRainLight Rain
11:00 AM46.4 °F41.0 °F81 %29.83 in6.2 miNNW (330°)13.8 mphRainRain
11:30 AM46.4 °F41.0 °F81 %29.83 in6.2 miNW (310°)13.8 mphScattered Clouds
12:00 PM50.0 °F41.0 °F71 %29.83 in6.2 miWNW (300°)16.1 mphMostly Cloudy
12:30 PM48.2 °F37.4 °F66 %29.83 in6.2 miNW (320°)21.9 mphMostly Cloudy
1:00 PM49.0 °F40.0 °F61 %29.83 inNW (320°)19.6 mphRainLight Rain Showers
1:00 PM48.2 °F39.2 °F71 %29.83 in6.2 miNW (320°)19.6 mphMostly Cloudy
1:30 PM50.0 °F37.4 °F62 %29.83 in6.2 miNW (320°)23.0 mph35.7 mphMostly Cloudy
2:00 PM50.0 °F39.2 °F66 %29.83 in6.2 miNW (320°)21.9 mphMostly Cloudy
2:30 PM50.0 °F37.4 °F62 %29.83 in6.2 miNW (320°)20.7 mph33.4 mphMostly Cloudy
3:00 PM50.0 °F35.6 °F58 %29.83 in6.2 miNW (320°)21.9 mph36.8 mphMostly Cloudy
3:30 PM48.2 °F35.6 °F62 %29.83 in6.2 miNW (320°)21.9 mph34.5 mphMostly Cloudy
4:00 PM50.0 °F35.6 °F58 %29.83 in6.2 miNW (310°)16.1 mphMostly Cloudy
4:30 PM48.2 °F35.6 °F62 %29.83 in6.2 miNW (320°)21.9 mph35.7 mphMostly Cloudy
5:00 PM48.2 °F35.6 °F62 %29.83 in6.2 miNW (320°)23.0 mphMostly Cloudy
5:30 PM46.4 °F37.4 °F71 %29.86 in6.2 miNW (320°)17.3 mphMostly Cloudy
6:00 PM46.4 °F37.4 °F71 %29.86 in6.2 miNW (310°)13.8 mphMostly Cloudy
6:30 PM44.6 °F37.4 °F76 %29.89 in6.2 miNW (320°)18.4 mphMostly Cloudy
7:00 PM44.0 °F38.0 °F71 %29.91 inNNW (330°)13.8 mphPartly Cloudy
7:00 PM44.6 °F37.4 °F76 %29.89 in6.2 miNNW (330°)13.8 mphPartly Cloudy
7:30 PM44.6 °F37.4 °F76 %29.92 in6.2 miNNW (340°)16.1 mphPartly Cloudy
8:00 PM42.8 °F37.4 °F81 %29.92 in6.2 miNNW (330°)13.8 mph
8:30 PM42.8 °F37.4 °F81 %29.95 in6.2 miNNW (340°)13.8 mphOvercast
9:00 PM42.8 °F37.4 °F81 %29.98 in6.2 miNNW (340°)15.0 mphOvercast
9:30 PM42.8 °F35.6 °F76 %29.98 in6.2 miNNW (340°)16.1 mphOvercast
10:00 PM42.8 °F33.8 °F70 %30.01 in6.2 miNorth (360°)16.1 mphOvercast
10:30 PM42.8 °F33.8 °F70 %30.04 in6.2 miNorth (350°)13.8 mphMostly Cloudy
11:00 PM41.0 °F32.0 °F70 %30.04 in6.2 miNNW (340°)13.8 mph
11:30 PM41.0 °F32.0 °F70 %30.06 in6.2 miNNW (330°)10.4 mphOvercast
Hourly data recorded from LFBD, located miles away from Bordeaux, France







STORIES FROM OUR PARTNERS